Zurück zum Katalog

ATLAS 5 CENTAUR DEB

AktivHEO
NORAD 44106·DEBRIS·🇺🇸 United States

Gestartet Sep 17, 2014 von Cape Canaveral Space Force Station

Loading…

Nächste Überflüge (nächste 24 Stunden)

TLE

AktuellSource: Space-Track

Epoche: Sep 9, 2026, 08:05 UTC

1 44106U 14055CB  26252.33718625 -.00000104  00000-0  00000-0 0  9998
2 44106  20.2390 135.0133 4783821 179.8356 180.3994  1.84989577 51302

Verfolge ATLAS 5 CENTAUR DEB in Echtzeit mit AllMySat

Download on the App Store